Regional Weather Roundup
Issued by NWS

Home | Current Version | Previous Version | Text Only | Print | Product List | Glossary On
Versions: 1 2 3 4 5 6 7 8 9 10 11 12 13 14 15 16 17 18 19 20 21 22 23 24 25 26 27
000
ASUS45 KBOI 250210
RWRID

IDAHO REGIONAL WEATHER ROUNDUP
NATIONAL WEATHER SERVICE BOISE ID
800 PM MDT WED AUG 24 2016

NOTE: "FAIR" INDICATES FEW OR NO CLOUDS BELOW 12000 FEET
WITH NO SIGNIFICANT WEATHER AND/OR OBSTRUCTIONS TO VISIBILITY

IDZ012-014-250300-
SOUTHWEST IDAHO


CITY           SKY/WX    TMP DP  RH WIND       PRES   REMARKS
BOISE          CLEAR     78  29  16 W10       30.05S
CALDWELL       CLEAR     79  35  20 SW7       30.04S
MOUNTAIN HOME  CLEAR     78  26  14 NW8       30.06S
$$

IDZ016-017-250300-
SOUTHCENTRAL IDAHO


CITY           SKY/WX    TMP DP  RH WIND       PRES   REMARKS
JEROME         CLEAR     68  38  33 W6        30.12S
TWIN FALLS     CLEAR     72  30  21 NW6       30.12S
$$

IDZ019>023-250300-
SOUTHEAST IDAHO


CITY           SKY/WX    TMP DP  RH WIND       PRES   REMARKS
IDAHO FALLS    PTCLDY    66  35  31 N10       30.17R
POCATELLO      MOCLDY    73  33  23 N5        30.14R
REXBURG        PTCLDY    65  33  30 N5        30.19R
$$

IDZ006-010-011-018-031-032-250300-
CENTRAL IDAHO MOUNTAINS


CITY           SKY/WX    TMP DP  RH WIND       PRES   REMARKS
MCCALL         CLEAR     68  34  28 N14G28    30.18R
HAILEY         PTCLDY    63  36  36 SE7       30.17S
STANLEY          N/A     67  25  20 SE10      30.22R
SALMON         CLOUDY    70  36  28 NE8       30.16R
CHALLIS        PTCLDY    66  30  26 N7        30.17R
$$

IDZ002-004-006-007-026-250300-
NORTHERN IDAHO


CITY           SKY/WX    TMP DP  RH WIND       PRES   REMARKS
LEWISTON       PTCLDY    83  41  22 NE12      30.09S
LOWELL           N/A     68  50  52 CALM      30.11R
COEUR D`ALENE  CLEAR     75  37  25 N9        30.16S
MULLAN PASS    PTCLDY    55  37  50 CALM      30.35S
$$




USA.gov is the U.S. government's official web portal to all federal, state and local government web resources and services.